Weather History for Muscatine, IA

Change the Weather History Date:

Tuesday, February 26, 2013

  Actual Average Record
Temperature  
Mean Temperature 32 °F -  
Max Temperature 35 °F 41 °F 63 °F (1976)
Min Temperature 30 °F 22 °F -10 °F (1950)
Degree Days  
Heating Degree Days 32    
Moisture  
Dew Point 26 °F    
Average Humidity 76    
Maximum Humidity 87    
Minimum Humidity 65    
Precipitation  
Precipitation 0.05 in - - ()
Sea Level Pressure  
Sea Level Pressure 29.66 in    
Wind  
Wind Speed 15 mph (NNE)    
Max Wind Speed 24 mph    
Max Gust Speed 32 mph    
Visibility 6 miles    
Events Snow    
Averages and records for this station are not official NWS values.
T = Trace of Precipitation, MM = Missing Value Source: NWS Daily Summary

Daily Weather History Graph

Daily Weather History Graph

Search for Another Location

Airport:

Trip Planner

Search our weather history database for the weather conditions in past years. The results will help you decide how hot, cold, wet, or windy it might be!

Date:

Astronomy

Feb. 26, 2013 Rise Set
Actual Time 6:43 AM CST 5:52 PM CST
Civil Twilight 6:15 AM CST 6:19 PM CST
Nautical Twilight 5:43 AM CST 6:52 PM CST
Astronomical Twilight 5:11 AM CST 7:24 PM CST
Moon 7:10 PM CST (2/26) 6:44 AM CST (2/26)
Length of Visible Light 12h 04m
Length of Day
11h 08m
Full, 99% of the Moon is Illuminated
Feb 26
Full
Mar 4
Last Quarter
Mar 11
New
Mar 19
First Quarter
Mar 27
Full

Hourly Weather History & Observations

Time (CST) Temp. Windchill Dew Point Humidity Pressure Visibility Wind Dir Wind Speed Gust Speed Precip Events Conditions
12:15 AM 35.6 °F 28.0 °F 24.8 °F 65% 29.87 in 10.0 mi ENE 10.4 mph - N/A   Mostly Cloudy
12:35 AM 35.6 °F 28.0 °F 24.8 °F 65% 29.87 in 10.0 mi East 10.4 mph - N/A   Mostly Cloudy
12:55 AM 35.6 °F 28.6 °F 24.8 °F 65% 29.86 in 10.0 mi East 9.2 mph 18.4 mph N/A   Mostly Cloudy
1:15 AM 35.6 °F 28.6 °F 24.8 °F 65% 29.85 in 10.0 mi East 9.2 mph 16.1 mph N/A   Overcast
1:35 AM 35.6 °F 27.1 °F 24.8 °F 65% 29.83 in 10.0 mi ENE 12.7 mph - N/A   Overcast
1:55 AM 35.6 °F 27.1 °F 24.8 °F 65% 29.81 in 10.0 mi ENE 12.7 mph 21.9 mph N/A   Overcast
2:15 AM 35.6 °F 25.9 °F 24.8 °F 65% 29.79 in 10.0 mi ENE 16.1 mph - N/A   Overcast
2:35 AM 35.6 °F 24.8 °F 24.8 °F 65% 29.77 in 10.0 mi ENE 19.6 mph 26.5 mph N/A   Overcast
2:55 AM 35.6 °F 27.5 °F 24.8 °F 65% 29.76 in 10.0 mi NE 11.5 mph - N/A   Overcast
3:15 AM 35.6 °F 25.2 °F 24.8 °F 65% 29.74 in 10.0 mi NE 18.4 mph - N/A   Overcast
3:35 AM 35.6 °F 25.9 °F 24.8 °F 65% 29.73 in 10.0 mi NE 16.1 mph 26.5 mph N/A   Overcast
3:55 AM 33.8 °F 22.5 °F 24.8 °F 70% 29.72 in 10.0 mi NE 19.6 mph - N/A   Overcast
4:15 AM 33.8 °F 22.5 °F 24.8 °F 70% 29.72 in 10.0 mi NE 19.6 mph 27.6 mph N/A   Overcast
4:35 AM 33.8 °F 22.8 °F 26.6 °F 75% 29.70 in 10.0 mi NE 18.4 mph - N/A   Overcast
4:55 AM 33.8 °F 22.5 °F 26.6 °F 75% 29.69 in 10.0 mi NE 19.6 mph 25.3 mph N/A   Overcast
5:15 AM 33.8 °F 22.2 °F 26.6 °F 75% 29.68 in 10.0 mi NE 20.7 mph 26.5 mph N/A   Overcast
5:35 AM 33.8 °F 22.8 °F 26.6 °F 75% 29.67 in 10.0 mi NE 18.4 mph 24.2 mph N/A   Overcast
5:55 AM 33.8 °F 22.8 °F 26.6 °F 75% 29.66 in 10.0 mi NE 18.4 mph 28.8 mph N/A   Overcast
6:15 AM 33.8 °F 22.8 °F 24.8 °F 70% 29.66 in 10.0 mi NE 18.4 mph 26.5 mph N/A   Overcast
6:35 AM 33.8 °F 23.9 °F 24.8 °F 70% 29.68 in 10.0 mi NE 15.0 mph 24.2 mph N/A   Overcast
6:55 AM 33.8 °F 23.9 °F 26.6 °F 75% 29.68 in 10.0 mi NE 15.0 mph 20.7 mph N/A   Overcast
7:15 AM 33.8 °F 23.2 °F 26.6 °F 75% 29.68 in 10.0 mi NE 17.3 mph - N/A   Overcast
7:35 AM 33.8 °F 22.5 °F 26.6 °F 75% 29.67 in 10.0 mi NE 19.6 mph - N/A   Scattered Clouds
7:55 AM 33.8 °F 22.2 °F 26.6 °F 75% 29.65 in 10.0 mi NNE 20.7 mph 26.5 mph N/A   Scattered Clouds
8:15 AM 33.8 °F 21.3 °F 26.6 °F 75% 29.64 in 10.0 mi NE 24.2 mph 28.8 mph N/A   Scattered Clouds
8:35 AM 33.8 °F 21.9 °F 26.6 °F 75% 29.63 in 10.0 mi NE 21.9 mph 27.6 mph N/A   Clear
8:55 AM 33.8 °F 22.5 °F 26.6 °F 75% 29.63 in 10.0 mi NE 19.6 mph 25.3 mph N/A   Clear
9:15 AM 35.6 °F 24.5 °F 24.8 °F 65% 29.62 in 10.0 mi NE 20.7 mph 27.6 mph N/A   Scattered Clouds
9:35 AM 35.6 °F 25.5 °F 24.8 °F 65% 29.62 in 10.0 mi NE 17.3 mph 27.6 mph N/A   Mostly Cloudy
9:55 AM 35.6 °F 25.5 °F 24.8 °F 65% 29.62 in 7.0 mi NE 17.3 mph 28.8 mph N/A   Overcast
10:15 AM 33.8 °F 21.6 °F 26.6 °F 75% 29.62 in 1.0 mi NE 23.0 mph 32.2 mph N/A Snow Light Snow
10:35 AM 33.8 °F 22.5 °F 26.6 °F 75% 29.62 in 0.5 mi NE 19.6 mph 26.5 mph N/A Snow Light Snow
10:55 AM 33.8 °F 21.9 °F 28.4 °F 81% 29.61 in 0.5 mi NE 21.9 mph 28.8 mph N/A Snow Light Snow
11:15 AM 33.8 °F 22.2 °F 28.4 °F 81% 29.59 in 1.0 mi NNE 20.7 mph 28.8 mph N/A Snow Light Snow
11:35 AM 33.8 °F 22.5 °F 28.4 °F 81% 29.60 in 0.5 mi NE 19.6 mph - 0.01 in Snow Light Snow
11:55 AM 33.8 °F 23.2 °F 28.4 °F 81% 29.60 in 1.8 mi NE 17.3 mph 25.3 mph 0.01 in Snow Light Snow
12:15 PM 33.8 °F 22.8 °F 28.4 °F 81% 29.59 in 1.2 mi NE 18.4 mph 24.2 mph 0.01 in Snow Light Snow
12:35 PM 33.8 °F 23.2 °F 28.4 °F 81% 29.59 in 1.2 mi NNE 17.3 mph 26.5 mph 0.01 in Snow Light Snow
12:55 PM 33.8 °F 22.2 °F 28.4 °F 81% 29.57 in 1.0 mi NE 20.7 mph 29.9 mph 0.02 in Snow Light Snow
1:15 PM 33.8 °F 22.2 °F 28.4 °F 81% 29.57 in 0.8 mi NNE 20.7 mph - N/A Snow Light Snow
1:35 PM 32.0 °F 20.1 °F 28.4 °F 87% 29.57 in 0.8 mi NNE 19.6 mph 24.2 mph 0.01 in Snow Light Snow
1:55 PM 32.0 °F 20.8 °F 28.4 °F 87% 29.57 in 0.8 mi NNE 17.3 mph 21.9 mph 0.01 in Snow Light Snow
2:15 PM 32.0 °F 21.2 °F 28.4 °F 87% 29.57 in 1.0 mi NNE 16.1 mph 21.9 mph 0.01 in Snow Snow
2:35 PM 32.0 °F 22.1 °F 28.4 °F 87% 29.57 in 1.5 mi NNE 13.8 mph - 0.01 in Snow Light Snow
2:55 PM 32.0 °F 21.6 °F 26.6 °F 80% 29.58 in 2.5 mi NNE 15.0 mph 19.6 mph 0.01 in Snow Light Snow
3:15 PM 32.0 °F 22.5 °F 26.6 °F 80% 29.59 in 2.0 mi NNE 12.7 mph - N/A Snow Light Snow
3:35 PM 32.0 °F 23.0 °F 26.6 °F 80% 29.60 in 1.5 mi NNE 11.5 mph - N/A Snow Light Snow
3:55 PM 32.0 °F 22.1 °F 26.6 °F 80% 29.60 in 1.2 mi NNE 13.8 mph - N/A Snow Light Snow
4:15 PM 32.0 °F 22.5 °F 26.6 °F 80% 29.61 in 2.5 mi NNE 12.7 mph - N/A Snow Light Snow
4:35 PM 32.0 °F 22.1 °F 26.6 °F 80% 29.61 in 5.0 mi NNE 13.8 mph 18.4 mph N/A   Overcast
4:55 PM 32.0 °F 22.5 °F 26.6 °F 80% 29.61 in 7.0 mi NNE 12.7 mph - N/A   Overcast
5:15 PM 32.0 °F 22.1 °F 26.6 °F 80% 29.62 in 7.0 mi NNE 13.8 mph - N/A   Overcast
5:35 PM 32.0 °F 22.5 °F 26.6 °F 80% 29.63 in 3.0 mi NNE 12.7 mph - N/A   Overcast
5:55 PM 32.0 °F 22.5 °F 26.6 °F 80% 29.63 in 2.5 mi NNE 12.7 mph - N/A Snow Light Snow
6:15 PM 30.2 °F 20.2 °F 26.6 °F 86% 29.63 in 1.8 mi NNE 12.7 mph - N/A Snow Light Snow
6:35 PM 32.0 °F 23.0 °F 26.6 °F 80% 29.64 in 1.5 mi NNE 11.5 mph - N/A Snow Light Snow
6:55 PM 32.0 °F 22.5 °F 26.6 °F 80% 29.65 in 1.8 mi NNE 12.7 mph - N/A Snow Light Snow
7:15 PM 32.0 °F 23.6 °F 26.6 °F 80% 29.66 in 1.8 mi North 10.4 mph - N/A Snow Light Snow
7:35 PM 32.0 °F 23.0 °F 26.6 °F 80% 29.66 in 1.8 mi North 11.5 mph - N/A Snow Light Snow
7:55 PM 32.0 °F 23.6 °F 26.6 °F 80% 29.65 in 2.5 mi North 10.4 mph - N/A Snow Light Snow
8:15 PM 32.0 °F 22.5 °F 26.6 °F 80% 29.65 in 2.5 mi North 12.7 mph - N/A Snow Light Snow
8:35 PM 32.0 °F 24.2 °F 26.6 °F 80% 29.66 in 2.5 mi North 9.2 mph - N/A Snow Light Snow
8:55 PM 32.0 °F 23.6 °F 26.6 °F 80% 29.66 in 5.0 mi North 10.4 mph - N/A Snow Light Snow
9:15 PM 32.0 °F 23.0 °F 26.6 °F 80% 29.66 in 7.0 mi North 11.5 mph - N/A   Overcast
9:35 PM 32.0 °F 23.0 °F 26.6 °F 80% 29.66 in 7.0 mi North 11.5 mph - N/A   Overcast
9:55 PM 32.0 °F 23.6 °F 26.6 °F 80% 29.67 in 10.0 mi North 10.4 mph 17.3 mph N/A   Overcast
10:15 PM 32.0 °F 23.6 °F 26.6 °F 80% 29.67 in 10.0 mi North 10.4 mph - N/A   Overcast
10:55 PM 32.0 °F 23.0 °F 26.6 °F 80% 29.66 in 10.0 mi North 11.5 mph - N/A   Overcast
11:15 PM 32.0 °F 22.5 °F 26.6 °F 80% 29.66 in 10.0 mi North 12.7 mph - N/A   Overcast
11:35 PM 32.0 °F 22.5 °F 26.6 °F 80% 29.66 in 10.0 mi North 12.7 mph - N/A   Overcast
11:55 PM 32.0 °F 23.0 °F 26.6 °F 80% 29.67 in 7.0 mi North 11.5 mph 17.3 mph N/A   Overcast